Location: Pensacola
(30.4142°N, 87.2155°W)
Time: 19:11:30
(UTC-05:00)

AO-27 - Pass Details

Date: 01 June 2024
Orbit: 783 x 797 km, 98.8° (Epoch: 21 June)

Event Time Altitude Azimuth Distance (km) Brightness Sun altitude
Exits shadow 22:41:28 13° 239° (WSW) 2,178 9.9 -29.3°
Maximum altitude 22:43:31 15° 265° (W) 2,003 10.0 -29.6°
Drops below altitude 10° 22:46:30 10° 301° (WNW) 2,353 10.8 -29.9°
Sets 22:49:51 0° 323° (NW) 3,283 12.0 -30.3°
